Somerville, NJ

11:13 PM EDT on May 25, 2017 (GMT -0400)
Somerset

Weather History for KSMQ - October, 2012

Change the Weather History Date:

Monday, October 29, 2012

  Actual Average Record
Temperature  
Mean Temperature 58 °F -  
Max Temperature 63 °F 61 °F 80 °F (1984)
Min Temperature 53 °F 36 °F 24 °F (1933)
Degree Days  
Heating Degree Days 7    
Growing Degree Days 8 (Base 50)    
Moisture  
Dew Point 52 °F    
Average Humidity 85    
Maximum Humidity 94    
Minimum Humidity 67    
Precipitation  
Precipitation 0.95 in - - ()
Sea Level Pressure  
Sea Level Pressure 28.96 in    
Wind  
Wind Speed 19 mph (NNE)    
Max Wind Speed 32 mph    
Max Gust Speed 55 mph    
Visibility 4 miles    
Events Rain    
Averages and records for this station are not official NWS values.
T = Trace of Precipitation, MM = Missing Value Source: NWS Daily Summary

Daily Weather History Graph

Daily Weather History Graph

Search for Another Location

Airport or City:

Trip Planner

Search our weather history database for the weather conditions in past years. The results will help you decide how hot, cold, wet, or windy it might be!

Date:

Astronomy

Oct. 29, 2012 Rise Set
Actual Time 7:25 AM EDT 5:58 PM EDT
Civil Twilight 6:57 AM EDT 6:26 PM EDT
Nautical Twilight 6:25 AM EDT 6:58 PM EDT
Astronomical Twilight 5:53 AM EDT 7:30 PM EDT
Moon 5:48 PM EDT (10/29) 7:14 AM EDT (10/29)
Length of Visible Light 11h 28m
Length of Day
10h 32m
Full, 100% of the Moon is Illuminated
Oct 29
Full
Oct 29
Full
Nov 6
Last Quarter
Nov 13
New
Nov 20
First Quarter

Hourly Weather History & Observations

Time (EDT) Temp. Dew Point Humidity Pressure Visibility Wind Dir Wind Speed Gust Speed Precip Events Conditions
12:53 AM 55.9 °F 46.0 °F 69% 29.62 in 10.0 mi NE 17.3 mph 21.9 mph N/A   Overcast
1:53 AM 55.9 °F 45.0 °F 67% 29.60 in 10.0 mi NNE 11.5 mph 25.3 mph N/A   Overcast
2:53 AM 55.9 °F 45.0 °F 67% 29.56 in 10.0 mi NNE 15.0 mph 26.5 mph N/A   Overcast
3:53 AM 55.9 °F 45.0 °F 67% 29.52 in 10.0 mi NNE 15.0 mph 25.3 mph N/A   Overcast
4:53 AM 55.9 °F 46.0 °F 69% 29.48 in 10.0 mi NNE 16.1 mph 34.5 mph N/A   Overcast
5:01 AM 55.4 °F 46.4 °F 72% 29.46 in 10.0 mi North 11.5 mph 26.5 mph N/A   Overcast
5:49 AM 55.4 °F 46.4 °F 72% 29.43 in 10.0 mi North 16.1 mph 26.5 mph N/A   Overcast
5:53 AM 55.9 °F 46.0 °F 69% 29.42 in 10.0 mi NNE 12.7 mph 26.5 mph N/A   Overcast
6:32 AM 55.4 °F 46.4 °F 72% 29.41 in 10.0 mi NNE 21.9 mph 28.8 mph N/A   Overcast
6:53 AM 55.9 °F 46.9 °F 72% 29.40 in 10.0 mi NNE 12.7 mph 25.3 mph N/A   Overcast
7:53 AM 53.1 °F 48.9 °F 86% 29.35 in 6.0 mi North 18.4 mph 26.5 mph 0.07 in Rain Light Rain
8:50 AM 53.6 °F 48.2 °F 82% 29.29 in 2.0 mi North 19.6 mph 28.8 mph 0.11 in Rain Rain
8:53 AM 53.1 °F 48.9 °F 86% 29.29 in 2.0 mi North 19.6 mph 31.1 mph 0.12 in Rain Rain
9:21 AM 53.6 °F 50.0 °F 88% 29.26 in 1.8 mi North 18.4 mph 26.5 mph 0.07 in   Overcast
9:28 AM 53.6 °F 50.0 °F 88% 29.25 in 2.5 mi NNE 15.0 mph 28.8 mph 0.08 in   Overcast
9:45 AM 53.6 °F 50.0 °F 88% 29.23 in 1.2 mi North 16.1 mph 27.6 mph 0.12 in   Overcast
9:53 AM 53.1 °F 50.0 °F 89% 29.23 in 1.8 mi North 17.3 mph 26.5 mph 0.14 in   Overcast
10:01 AM 53.6 °F 50.0 °F 88% 29.22 in 2.5 mi North 15.0 mph 31.1 mph 0.01 in Rain Light Rain
10:09 AM 53.6 °F 50.0 °F 88% 29.21 in 3.0 mi North 16.1 mph 28.8 mph 0.01 in Rain Light Rain
10:17 AM 53.6 °F 51.8 °F 94% 29.19 in 2.0 mi NNE 17.3 mph 28.8 mph 0.02 in Rain Light Rain
10:33 AM 53.6 °F 51.8 °F 94% 29.18 in 1.8 mi NNE 16.1 mph 31.1 mph 0.05 in Rain Light Rain
10:41 AM 53.6 °F 51.8 °F 94% 29.17 in 2.5 mi NNE 17.3 mph 29.9 mph 0.06 in Rain Light Rain
10:51 AM 55.4 °F 51.8 °F 88% 29.15 in 4.0 mi North 20.7 mph 32.2 mph 0.06 in Rain Light Rain
10:53 AM 55.0 °F 51.1 °F 86% 29.16 in 4.0 mi NNE 21.9 mph 32.2 mph 0.06 in Rain Light Rain
11:48 AM 55.4 °F 51.8 °F 88% 29.09 in 1.8 mi NNE 18.4 mph 40.3 mph 0.03 in Rain Rain
11:53 AM 55.0 °F 52.0 °F 89% 29.08 in 2.0 mi NNE 18.4 mph 36.8 mph 0.03 in Rain Light Rain
12:19 PM 55.4 °F 51.8 °F 88% 29.04 in 1.8 mi North 17.3 mph 33.4 mph 0.04 in Rain Light Rain
12:25 PM 55.4 °F 51.8 °F 88% 29.03 in 3.0 mi North 18.4 mph 31.1 mph 0.04 in Rain Light Rain
12:39 PM 55.4 °F 51.8 °F 88% 29.01 in 1.8 mi North 18.4 mph 33.4 mph 0.06 in Rain Light Rain
12:45 PM 55.4 °F 51.8 °F 88% 29.00 in 3.0 mi North 19.6 mph 33.4 mph 0.06 in Rain Light Rain
12:53 PM 55.9 °F 52.0 °F 87% 28.99 in 4.0 mi North 21.9 mph 34.5 mph 0.06 in Rain Light Rain
1:04 PM 55.4 °F 53.6 °F 94% 28.97 in 1.8 mi NNE 24.2 mph 34.5 mph 0.02 in Rain Rain
1:16 PM 55.4 °F 53.6 °F 94% 28.93 in 2.5 mi NNE 23.0 mph 36.8 mph 0.04 in Rain Light Rain
1:33 PM 57.2 °F 53.6 °F 88% 28.91 in 1.2 mi North 23.0 mph 34.5 mph N/A Rain Rain
1:40 PM 57.2 °F 53.6 °F 88% 28.89 in 3.0 mi North 23.0 mph 36.8 mph 0.08 in Rain Light Rain
1:48 PM 57.2 °F 53.6 °F 88% 28.88 in 5.0 mi NNE 20.7 mph 36.8 mph 0.09 in Rain Light Rain
1:53 PM 57.0 °F 53.1 °F 87% 28.88 in 5.0 mi NNE 19.6 mph 35.7 mph 0.09 in Rain Light Rain
2:00 PM 57.2 °F 53.6 °F 88% 28.85 in 6.0 mi North 25.3 mph 38.0 mph 0.00 in Rain Light Rain
2:21 PM 57.2 °F 53.6 °F 88% 28.81 in 2.5 mi NNE 21.9 mph 41.4 mph 0.01 in Rain Light Rain
2:31 PM 57.2 °F 53.6 °F 88% 28.80 in 2.0 mi NNE 18.4 mph 39.1 mph 0.02 in Rain Light Rain
2:39 PM 57.2 °F 53.6 °F 88% 28.78 in 1.8 mi North 27.6 mph 44.9 mph 0.04 in Rain Rain
2:51 PM 57.2 °F 53.6 °F 88% 28.77 in 2.0 mi NNE 20.7 mph 35.7 mph 0.07 in Rain Rain
2:53 PM 57.9 °F 54.0 °F 87% 28.77 in 2.0 mi NNE 27.6 mph 55.2 mph 0.07 in Rain Light Rain
3:01 PM 57.2 °F 53.6 °F 88% 28.76 in 2.0 mi NNE 23.0 mph 55.2 mph 0.01 in Rain Light Rain
3:09 PM 57.2 °F 55.4 °F 94% 28.74 in 2.0 mi NNE 21.9 mph 32.2 mph 0.03 in Rain Rain
3:30 PM 59.0 °F 55.4 °F 88% 28.70 in 3.0 mi NNE 24.2 mph 42.6 mph 0.06 in Rain Light Rain
3:38 PM 59.0 °F 55.4 °F 88% 28.68 in 2.5 mi NNE 21.9 mph 42.6 mph 0.07 in Rain Light Rain
3:53 PM 59.0 °F 55.9 °F 90% 28.67 in 2.5 mi NNE 21.9 mph 39.1 mph 0.09 in Rain Light Rain
4:05 PM 60.8 °F 55.4 °F 82% 28.64 in 1.8 mi NNE 24.2 mph 44.9 mph 0.03 in Rain Rain
4:12 PM 60.8 °F 55.4 °F 82% 28.63 in 3.0 mi NNE 23.0 mph 42.6 mph 0.04 in Rain Light Rain
4:27 PM 60.8 °F 55.4 °F 82% 28.59 in 2.5 mi NNE 23.0 mph 50.6 mph 0.05 in Rain Light Rain
4:31 PM 60.8 °F 55.4 °F 82% 28.59 in 3.0 mi NNE 26.5 mph 46.0 mph N/A Rain Light Rain
4:45 PM 60.8 °F 57.2 °F 88% 28.56 in 2.5 mi NNE 25.3 mph 41.4 mph 0.06 in Rain Light Rain
4:53 PM 61.0 °F 57.0 °F 87% 28.56 in 3.0 mi NNE 29.9 mph 44.9 mph 0.07 in Rain Light Rain
5:01 PM 60.8 °F 57.2 °F 88% 28.54 in 2.5 mi NNE 19.6 mph 51.8 mph 0.01 in Rain Light Rain
5:09 PM 60.8 °F 57.2 °F 88% 28.53 in 4.0 mi NE 21.9 mph 42.6 mph 0.01 in Rain Light Rain
5:44 PM 60.8 °F 57.2 °F 88% 28.49 in 2.0 mi NNE 26.5 mph 52.9 mph 0.03 in Rain Light Rain
5:53 PM 61.0 °F 57.0 °F 87% 28.47 in 3.0 mi NNE 21.9 mph 49.5 mph 0.04 in Rain Light Rain
6:05 PM 60.8 °F 57.2 °F 88% 28.47 in 2.0 mi NE 32.2 mph 54.1 mph 0.03 in Rain Rain
6:51 PM 62.6 °F 59.0 °F 88% 28.45 in 2.5 mi ENE 21.9 mph 52.9 mph N/A Rain Light Rain
6:53 PM 63.0 °F 59.0 °F 87% 28.45 in 2.5 mi ENE 20.7 mph 52.9 mph N/A Rain Light Rain
7:12 PM 62.6 °F 59.0 °F 88% 28.46 in 2.5 mi ENE 28.8 mph 52.9 mph 0.03 in Rain Light Rain
7:49 PM 60.8 °F 55.4 °F 82% 28.47 in 4.0 mi East 25.3 mph 50.6 mph 0.10 in Rain Light Rain
7:53 PM 60.1 °F 55.9 °F 86% 28.48 in 3.0 mi East 20.7 mph 50.6 mph 0.11 in Rain Light Rain